Regional Weather Roundup
Issued by NWS

Home | Current Version | Previous Version | Text Only | Print | Product List | Glossary Off
Versions: 1 2 3 4 5 6 7 8 9 10 11 12 13 14 15 16 17 18 19 20 21 22 23 24 25 26 27

000
ASUS45 KPSR 182010
RWRAZ

ARIZONA HOURLY REGIONAL WEATHER ROUNDUP
NATIONAL WEATHER SERVICE PHOENIX AZ
100 PM MST SAT FEB 18 2017

NOTE: FAIR INDICATES FEW OR NO CLOUDS BELOW 12,000 FEET WITH NO
SIGNIFICANT WEATHER AND/OR OBSTRUCTIONS TO VISIBILITY.

AZZ001>003-036-182100-
NORTHWEST ARIZONA

CITY           SKY/WX    TMP DP  RH WIND       PRES   REMARKS
BULLHEAD CITY  CLOUDY    61  52  72 SW6       29.53F
KINGMAN        CLOUDY    54  32  43 SE21G29   29.57S
$$

AZZ004>008-015-016-018-182100-
NORTH CENTRAL ARIZONA

CITY           SKY/WX    TMP DP  RH WIND       PRES   REMARKS
GRAND CANYON   CLOUDY    41  35  79 E5        29.69F
WILLIAMS       CLOUDY    39  36  87 S12G20    29.68F FOG     WCI  32
PRESCOTT       CLOUDY    45  42  89 SE15      29.64F
FLAGSTAFF      LGT RAIN  38  36  92 SE3       29.69F
PAYSON         DRIZZLE   45  41  87 S7        29.72S
PAGE           CLOUDY    50  35  56 NE9       29.68
$$

AZZ009>014-017-182100-
NORTHEAST ARIZONA

CITY           SKY/WX    TMP DP  RH WIND       PRES   REMARKS
WINSLOW        PTSUNNY   62  30  29 S29G38    29.64F
SAINT JOHNS    MOSUNNY   57  28  33 S16G22    29.69F
WINDOW ROCK    CLOUDY    51  30  44 S9        29.76F
SHOW LOW       MOSUNNY   48  28  46 S23G35    29.70F
$$

AZZ023-182100-
GREATER PHOENIX AREA

CITY           SKY/WX    TMP DP  RH WIND       PRES   REMARKS
PHOENIX        CLOUDY    60  52  74 E17       29.56F
BUCKEYE        CLOUDY    57  57 100 SE6       29.56S
GLENDALE       LGT RAIN  61  54  77 NE14G23   29.58F
LUKE AFB       LGT RAIN  61  52  72 E17       29.54F
DEER VALLEY    CLOUDY    61  49  64 E18       29.55F
SCOTTSDALE     CLOUDY    62  48  60 E12       29.58F
MESA-FALCON    CLOUDY   N/A N/A N/A NE12      29.56F
MESA-GATEWAY   CLOUDY    57  52  82 E14       29.59F
CHANDLER       CLOUDY    61  52  72 NE23      29.57F
$$

AZZ027-028-182100-
SOUTHWEST MARICOPA COUNTY AND PINAL COUNTY

CITY           SKY/WX    TMP DP  RH WIND       PRES   REMARKS
CASA GRANDE    NOT AVBL
GILA BEND      PTSUNNY   62  47  57 S12       29.54F
$$

AZZ503-504-507>509-182100-
SOUTHEAST ARIZONA

CITY           SKY/WX    TMP DP  RH WIND       PRES   REMARKS
TUCSON         CLOUDY    64  39  39 SE24G33   29.60F
DAVIS-MONTHAN  CLOUDY    64  39  41 SE22G35   29.59F
RYAN FIELD     CLOUDY    64  36  34 SE14G29   29.59F
NOGALES        CLOUDY    58  38  47 SE26G39   29.60F
SIERRA VISTA   PTSUNNY   55  37  52 SE30G40   29.65F
DOUGLAS        PTSUNNY   59  33  37 SE23G31   29.68F
SAFFORD        CLOUDY    63  34  33 SE13G23   29.66F
$$

AZZ020-021-025-026-031-182100-
SOUTHWEST ARIZONA

CITY           SKY/WX    TMP DP  RH WIND       PRES   REMARKS
YUMA           LGT RAIN  57  54  89 S9        29.54F
$$

CAZ031-033-041-043-047-048-061-182100-
SOUTHERN CALIFORNIA

CITY           SKY/WX    TMP DP  RH WIND       PRES   REMARKS
DOWNTOWN L.A.  CLOUDY    57  51  80 CALM      29.58S
L.A. AIRPORT   CLOUDY    57  54  89 NE7       29.57F
SAN DIEGO      PTSUNNY   60  47  61 S9        29.59F
BURBANK        CLOUDY    57  47  69 VRB7      29.56F
ONTARIO        PTSUNNY   58  47  66 VRB3      29.56S
RIVERSIDE      CLOUDY    58  48  69 E3        29.56S
PALM SPRINGS   LGT RAIN  58  53  84 VRB6      29.57F
EL CENTRO NAS  CLOUDY    59  48  67 CALM      29.55F
IMPERIAL       CLOUDY    58  52  80 E3        29.53F
BLYTHE         LGT RAIN  56  56 100 SW10      29.53F
NEEDLES        LGT RAIN  62  52  69 SW12      29.53S
$$

NVZ020-UTZ003-182100-
SOUTHERN NEVADA-UTAH

CITY           SKY/WX    TMP DP  RH WIND       PRES   REMARKS
LAS VEGAS      LGT RAIN  53  48  83 E10       29.53F
SALT LAKE CITY CLOUDY    54  34  46 S14       29.61F
$$

NMZ009-TXZ055-182100-
NEW MEXICO-WEST TEXAS

CITY           SKY/WX    TMP DP  RH WIND       PRES   REMARKS
ALBUQUERQUE    CLOUDY    53  32  44 SW5       29.78F
EL PASO        CLOUDY    61  34  36 E7        29.76F
$$


........................KEY........................
SKY/WX - SKY CONDITION/WEATHER
TMP    - TEMPERATURE IN FAHRENHEIT
DP     - DEW POINT IN FAHRENHEIT
RH     - RELATIVE HUMIDITY IN PERCENT
WIND   - DIRECTION AND SPEED IN MILES PER HOUR (MPH)
VRB    - VARIABLE WIND DIRECTION
PRES   - MEAN SEA LEVEL PRESSURE IN INCHES OF MERCURY
         F - FALLING PRESSURE   R - RISING PRESSURE
         S - STEADY PRESSURE
VSB    - VISIBILITY IN MILES
HX     - HEAT INDEX IN FAHRENHEIT
WCI    - WIND CHILL INDEX IN FAHRENHEIT
TC     - TEMPERATURE IN CELSIUS WHICH IS ALSO KNOWN AS
         TEMPERATURE IN CENTIGRADE
AFB    - AIR FORCE BASE
         LUKE AFB IS LUKE AIR FORCE BASE
         DAVIS-MONTHAN IS DAVIS-MONTHAN AIR FORCE BASE
NAS    - NAVAL AIR STATION
         EL CENTRO NAS IS EL CENTRO NAVAL AIR STATION
N/A    - NOT AVAILABLE





USA.gov is the U.S. government's official web portal to all federal, state and local government web resources and services.